Air Quality Table

TIMESTAMP NO2 SO2 O3 PM10 PM2.5 CO TEMP HUM AIRPRES WS WD NO BENZENE
2022-01-21 01:00 59.64 µg/m3 0.74 µg/m3 17.33 µg/m3 42.76 µg/m3 23.25 µg/m3 0.64 mg/m3 12.45 °C 69.33 % 1,023.29 mbar 0.79 m/s 234.44 Deg 22.93 µg/m3 4.47 µg/m3
2022-01-20 17:00 35.77 µg/m3 1.54 µg/m3 51.64 µg/m3 38.31 µg/m3 12.51 µg/m3 0.34 mg/m3 14.61 °C 63.83 % 1,024.91 mbar 1.64 m/s 243.62 Deg 19.9 µg/m3 2.35 µg/m3
2022-01-20 09:00 42.95 µg/m3 1.67 µg/m3 17.63 µg/m3 28.6 µg/m3 18.37 µg/m3 0.73 mg/m3 11.4 °C 81.82 % 1,026.95 mbar 0.73 m/s 236.28 Deg 66.55 µg/m3 5.51 µg/m3
2022-01-20 01:00 50.73 µg/m3 1.09 µg/m3 23.83 µg/m3 20.7 µg/m3 15.1 µg/m3 0.49 mg/m3 12.53 °C 79.79 % 1,029.05 mbar 0.81 m/s 191.74 Deg 20.97 µg/m3 3.23 µg/m3
2022-01-19 17:00 43.22 µg/m3 1.46 µg/m3 48.56 µg/m3 34.2 µg/m3 12.26 µg/m3 0.43 mg/m3 14.85 °C 58.96 % 1,030.04 mbar 1.75 m/s 117.17 Deg 42.43 µg/m3 2.61 µg/m3
2022-01-19 09:00 43.61 µg/m3 1.78 µg/m3 21.27 µg/m3 33.5 µg/m3 18.58 µg/m3 0.66 mg/m3 12.06 °C 73.22 % 1,030.10 mbar 0.57 m/s 223.03 Deg 58.54 µg/m3 5.77 µg/m3
2022-01-19 01:00 58.1 µg/m3 1.37 µg/m3 14.99 µg/m3 43.49 µg/m3 24.64 µg/m3 0.69 mg/m3 12.05 °C 70.72 % 1,030.43 mbar 0.97 m/s 233.53 Deg 32.9 µg/m3 5.45 µg/m3
2022-01-18 17:00 29.55 µg/m3 0.89 µg/m3 60.82 µg/m3 36.56 µg/m3 11.44 µg/m3 0.3 mg/m3 14.88 °C 58.64 % 1,028.93 mbar 1.78 m/s 289.41 Deg 13.61 µg/m3 1.69 µg/m3
2022-01-18 09:00 32.56 µg/m3 0.91 µg/m3 45.93 µg/m3 27.37 µg/m3 10.57 µg/m3 0.32 mg/m3 12.32 °C 72.66 % 1,026.68 mbar 1.37 m/s 257.05 Deg 15.69 µg/m3 1.71 µg/m3
2022-01-18 01:00 23.59 µg/m3 0.7 µg/m3 58.11 µg/m3 18.54 µg/m3 10.3 µg/m3 0.28 mg/m3 13.2 °C 72.29 % 1,025.63 mbar 1.63 m/s 256.45 Deg 2.5 µg/m3 1.4 µg/m3
2022-01-17 17:00 32.77 µg/m3 0.88 µg/m3 56.65 µg/m3 44.35 µg/m3 12.61 µg/m3 0.3 mg/m3 14.8 °C 65.42 % 1,025.55 mbar 2.82 m/s 262.78 Deg 12.25 µg/m3 2.09 µg/m3
2022-01-17 09:00 58.93 µg/m3 2.52 µg/m3 5.14 µg/m3 27.93 µg/m3 19.62 µg/m3 0.97 mg/m3 11.12 °C 83.47 % 1,026.20 mbar 0.33 m/s 253.44 Deg 110.49 µg/m3 7.64 µg/m3
2022-01-17 01:00 61.81 µg/m3 1.76 µg/m3 4.57 µg/m3 42.04 µg/m3 30.13 µg/m3 1.06 mg/m3 12.13 °C 81.82 % 1,026.18 mbar 0.62 m/s 238.34 Deg 58.64 µg/m3 8.63 µg/m3
2022-01-16 17:00 38 µg/m3 1.27 µg/m3 51.59 µg/m3 29.22 µg/m3 14.86 µg/m3 0.59 mg/m3 15.01 °C 68.56 % 1,024.91 mbar 1.66 m/s 93.23 Deg 32.66 µg/m3 4.5 µg/m3
2022-01-16 09:00 38.73 µg/m3 1.37 µg/m3 6.04 µg/m3 22.08 µg/m3 16.13 µg/m3 0.65 mg/m3 9.02 °C 83.49 % 1,023.20 mbar 0.67 m/s 241.04 Deg 30.04 µg/m3 5.54 µg/m3
2022-01-16 01:00 65.4 µg/m3 1.83 µg/m3 7.49 µg/m3 49.61 µg/m3 31.47 µg/m3 1.11 mg/m3 10.97 °C 75.15 % 1,021.96 mbar 0.55 m/s 232.2 Deg 58.43 µg/m3 10.16 µg/m3
2022-01-15 17:00 26.77 µg/m3 0.92 µg/m3 63.52 µg/m3 35.26 µg/m3 10.81 µg/m3 0.33 mg/m3 13.87 °C 60.16 % 1,021.75 mbar 1.73 m/s 292.68 Deg 10.76 µg/m3 2.27 µg/m3
2022-01-15 09:00 39.75 µg/m3 1.46 µg/m3 15.12 µg/m3 26.3 µg/m3 16.32 µg/m3 0.55 mg/m3 8.23 °C 75.8 % 1,023.19 mbar 1.03 m/s 235.02 Deg 35.64 µg/m3 5.7 µg/m3
2022-01-15 01:00 55.55 µg/m3 1.25 µg/m3 24.64 µg/m3 36.39 µg/m3 18.34 µg/m3 0.62 mg/m3 10.69 °C 62.79 % 1,025.72 mbar 1 m/s 191.35 Deg 27.95 µg/m3 4.62 µg/m3
2022-01-14 17:00 21.86 µg/m3 1.22 µg/m3 69.12 µg/m3 28.54 µg/m3 11.77 µg/m3 0.3 mg/m3 12.98 °C 57.5 % 1,026.51 mbar 4.08 m/s 42.72 Deg 25.33 µg/m3 1.57 µg/m3

It is to be noted that the data is provisional and subject to quality assurance procedures. For validated data kindly refer your request to contact.air@era.org.mt